Flag for Austria Weather past 2 weeks in Krems, Lower Austria, Austria

Now
68 °F

Passing clouds.


Feels Like: 68 °F
Forecast: 60 / 81 °F
Wind: 3 mph from Northeast

Location: Tulln Airport

Current Time: Jul 29, 2014 at 12:44:20 AM

Latest Report: Jul 28, 2014 at 10:50 PM


Visibility: 6 mi

Pressure: 29.83 "Hg

Humidity: 88%

Dew point: 64 °F

Location of KremsLocation

Historic Weather in Krems — Graph

°F

Krems temperature yesterday

Maximum temperature yesterday: 79 °F (at 3:50 PM)
Minimum temperature yesterday: 64 °F (at 5:50 AM)
Average temperature yesterday: 70 °F

Past Weeks' High & Low Weather Summary

 TemperatureHumidityPressure
High91 °F (Jul 20, 1:50 PM)100% (Jul 16, 5:50 AM)30.15 "Hg (Jul 16, 5:50 AM)
Low57 °F (Jul 14, 5:50 AM)33% (Jul 18, 2:50 PM)29.74 "Hg (Jul 21, 2:50 PM)
Average75 °F66%29.95 "Hg
* Reported Jul 13 10:50 PM — Jul 28 10:50 PM, Krems, Weather by CustomWeather, © 2014

Note: Actual official high and low records may vary slightly from our data, if they occured in-between our weather recording intervals... More about our weather records

Advertising

Krems weather history for previous 24 hours

 ConditionsComfort  
Time TempWeatherWind HumidityBarometerVisibility
10:50 PM
Jul 28
68 °FPassing clouds.3 mph88%29.83 "Hg6 mi
9:50 PM68 °FPassing clouds.1 mph94%29.83 "Hg7 mi
8:50 PM70 °FBroken clouds.2 mph88%29.83 "Hg9 mi
7:50 PM70 °FPartly sunny.3 mph88%29.83 "Hg12 mi
6:50 PM72 °FBroken clouds.3 mph73%29.83 "Hg7 mi
5:50 PM72 °FSprinkles. Broken clouds.10 mph83%29.83 "Hg6 mi
4:50 PM77 °FBroken clouds.5 mph61%29.83 "Hg12 mi
3:50 PM79 °FPartly sunny.8 mph61%29.86 "Hg11 mi
2:50 PM77 °FBroken clouds.7 mph65%29.86 "Hg9 mi
1:50 PM73 °FPartly sunny.5 mph78%29.89 "Hg7 mi
12:50 PM72 °FPartly sunny.2 mph83%29.89 "Hg6 mi
11:50 AM70 °FPartly sunny.3 mph83%29.92 "Hg6 mi
10:50 AM70 °FSprinkles. Broken clouds.2 mph83%29.92 "Hg5 mi
9:50 AM68 °FBroken clouds.1 mph88%29.92 "Hg5 mi
8:50 AM68 °FBroken clouds.5 mph88%29.92 "Hg5 mi
7:50 AM66 °FBroken clouds.2 mph88%29.92 "Hg6 mi
6:50 AM66 °FPartly sunny.3 mph88%29.92 "Hg7 mi
5:50 AM64 °FPartly cloudy.3 mph94%29.92 "Hg11 mi
Weather by CustomWeather, © 2014

See weather overviewHow to use our weather pages